Date String (YYYY-MM-DD hh:mm:ss) UTC,Instrument flags,Ambient pressure (hPa),Sample flow (lpm),Bypass flow (lpm),Sample temperature (°C),Ambient temperature (°C),ASC tube jacket temperature (°C),LED temperature (°C),Box temperature (°C),Sample RH (%),Span deviation,Mass concentration (μg/m³),Mass concentration (μg/m³),Mass concentration (μg/m³)
DateTimeUTC,F1_M11,P_M11,Q1_M11,Q2_M11,T1_M11,T2_M11,T3_M11,T4_M11,T5_M11,U1_M11,ZSPAN_M11,X0_M11,X2_M11,X1_M11
2022-08-04 04:00:00,,0829.5,5.00,0.00,29.4,28.2,00.0,38.2,31.4,32.9,0000.0,0015.67,0008.53,0007.48
2022-08-04 04:01:00,,0829.5,5.00,0.00,29.5,28.3,00.0,38.2,31.4,32.6,0000.0,0015.71,0008.50,0007.47
2022-08-04 04:02:00,,0829.5,5.00,0.00,29.5,28.4,00.0,38.2,31.5,32.5,0000.0,0016.04,0008.49,0007.47
2022-08-04 04:03:00,,0829.5,4.99,0.00,29.5,28.5,00.0,38.3,31.5,32.4,0000.0,0015.49,0008.45,0007.45
2022-08-04 04:04:00,,0829.5,5.00,0.00,29.5,28.1,00.0,38.2,31.4,32.4,0000.0,0015.47,0008.40,0007.44
2022-08-04 04:05:00,,0829.5,4.99,0.00,29.5,27.6,00.0,38.2,31.3,32.3,0000.1,0015.95,0008.39,0007.43
2022-08-04 04:06:00,,0829.5,5.00,0.00,29.5,27.4,00.0,38.2,31.2,32.0,0000.0,0016.22,0008.39,0007.44
2022-08-04 04:07:00,,0829.5,5.00,0.00,29.4,27.4,00.0,38.2,31.2,32.0,0000.0,0015.95,0008.37,0007.44
2022-08-04 04:08:00,,0829.5,5.00,0.00,29.4,27.5,00.0,38.2,31.2,31.9,0000.0,0015.75,0008.36,0007.45
2022-08-04 04:09:00,,0829.5,5.00,0.00,29.4,27.7,00.0,38.2,31.2,31.7,0000.5,0015.27,0008.40,0007.49
2022-08-04 04:10:00,,0829.5,5.00,0.00,29.4,27.8,00.0,38.2,31.3,31.9,0000.9,0014.28,0008.44,0007.51
2022-08-04 04:11:00,,0829.5,5.00,0.00,29.4,28.0,00.0,38.2,31.3,32.1,0000.8,0014.40,0008.47,0007.52
2022-08-04 04:12:00,,0829.5,5.00,0.00,29.4,28.1,00.0,38.2,31.4,31.9,0000.9,0014.34,0008.53,0007.52
2022-08-04 04:13:00,,0829.5,5.01,0.00,29.4,28.3,00.0,38.2,31.4,31.6,0000.8,0014.38,0008.53,0007.52
2022-08-04 04:14:00,,0829.5,5.00,0.00,29.5,28.4,00.0,38.2,31.5,31.5,0001.0,0015.16,0008.53,0007.54
2022-08-04 04:15:00,,0829.5,5.00,0.00,29.5,28.5,00.0,38.2,31.5,31.4,0001.0,0015.84,0008.57,0007.55
2022-08-04 04:16:00,,0829.5,4.99,0.00,29.5,28.6,00.0,38.3,31.6,31.3,0001.2,0015.66,0008.57,0007.56
2022-08-04 04:17:00,,0829.5,5.01,0.00,29.6,28.3,00.0,38.3,31.5,31.8,0001.4,0014.92,0008.54,0007.56
2022-08-04 04:18:00,,0829.5,4.99,0.00,29.5,27.5,00.0,38.2,31.3,32.1,0001.5,0014.86,0008.56,0007.56
2022-08-04 04:19:00,,0829.5,5.00,0.00,29.5,27.0,00.0,38.2,31.2,31.8,0001.4,0014.87,0008.56,0007.57
2022-08-04 04:20:00,,0829.5,5.01,0.00,29.4,26.9,00.0,38.2,31.1,31.9,0001.6,0015.41,0008.59,0007.57
2022-08-04 04:21:00,,0829.5,5.00,0.00,29.3,27.0,00.0,38.2,31.0,32.2,0001.8,0015.53,0008.59,0007.57
2022-08-04 04:22:00,,0829.5,4.99,0.00,29.3,27.1,00.0,38.1,31.0,32.5,0002.1,0015.56,0008.57,0007.58
2022-08-04 04:23:00,,0829.5,4.99,0.00,29.3,27.3,00.0,38.1,31.1,32.3,0001.8,0015.67,0008.52,0007.58
2022-08-04 04:24:00,,0829.5,5.00,0.00,29.3,27.5,00.0,38.1,31.1,32.1,0001.3,0015.14,0008.45,0007.58
2022-08-04 04:25:00,,0829.5,5.01,0.00,29.3,27.7,00.0,38.1,31.2,31.9,0001.5,0014.42,0008.46,0007.58
2022-08-04 04:26:00,,0829.4,5.00,0.00,29.3,27.8,00.0,38.1,31.2,31.8,0001.8,0014.03,0008.48,0007.58
2022-08-04 04:27:00,,0829.5,5.00,0.00,29.3,28.0,00.0,38.1,31.3,31.6,0002.0,0013.96,0008.45,0007.57
2022-08-04 04:28:00,,0829.5,5.00,0.00,29.4,28.1,00.0,38.1,31.3,31.5,0002.2,0014.26,0008.41,0007.55
2022-08-04 04:29:00,,0829.5,5.01,0.00,29.4,28.3,00.0,38.2,31.4,31.2,0001.9,0014.48,0008.40,0007.56
2022-08-04 04:30:00,,0829.5,5.00,0.00,29.4,28.4,00.0,38.2,31.4,31.1,0000.4,0015.14,0008.42,0007.55
2022-08-04 04:31:00,,0829.5,4.99,0.00,29.5,28.5,00.0,38.2,31.5,31.2,0000.0,0015.21,0008.38,0007.55
2022-08-04 04:32:00,,0829.5,5.00,0.00,29.5,28.6,00.0,38.2,31.5,31.0,0000.0,0015.00,0008.37,0007.55
2022-08-04 04:33:00,,0829.5,5.01,0.00,29.5,28.6,00.0,38.3,31.6,30.9,0000.0,0014.99,0008.40,0007.55
2022-08-04 04:34:00,,0829.5,5.00,0.00,29.5,28.0,00.0,38.2,31.4,30.9,0000.0,0015.02,0008.44,0007.57
2022-08-04 04:35:00,,0829.5,4.99,0.00,29.5,27.3,00.0,38.2,31.3,30.8,0000.0,0016.16,0008.50,0007.59
2022-08-04 04:36:00,,0829.5,5.01,0.00,29.4,27.0,00.0,38.2,31.2,30.9,0000.0,0016.16,0008.53,0007.60
2022-08-04 04:37:00,,0829.5,4.99,0.00,29.3,26.9,00.0,38.1,31.0,31.0,0000.0,0015.95,0008.48,0007.61
2022-08-04 04:38:00,,0829.5,5.01,0.00,29.3,27.1,00.0,38.1,31.1,31.0,0002.4,0016.07,0008.50,0007.63
2022-08-04 04:39:00,,0829.5,4.99,0.00,29.3,27.2,00.0,38.1,31.1,31.1,0002.6,0015.84,0008.57,0007.65
2022-08-04 04:40:00,,0829.5,5.00,0.00,29.3,27.4,00.0,38.1,31.1,31.1,0002.4,0015.97,0008.58,0007.66
2022-08-04 04:41:00,,0829.5,4.99,0.00,29.3,27.6,00.0,38.1,31.2,31.0,0001.7,0016.04,0008.55,0007.67
2022-08-04 04:42:00,,0829.5,4.99,0.00,29.3,27.8,00.0,38.1,31.2,31.0,0001.4,0015.38,0008.56,0007.66
2022-08-04 04:43:00,,0829.5,5.00,0.00,29.3,27.9,00.0,38.1,31.3,31.0,0001.1,0015.45,0008.57,0007.65
2022-08-04 04:44:00,,0829.5,5.00,0.00,29.3,28.1,00.0,38.1,31.3,31.0,0000.7,0015.31,0008.55,0007.65
2022-08-04 04:45:00,,0829.5,5.00,0.00,29.4,28.2,00.0,38.1,31.3,31.0,0000.3,0015.55,0008.51,0007.64
2022-08-04 04:46:00,,0829.5,5.00,0.00,29.4,28.3,00.0,38.2,31.4,30.7,0000.4,0014.86,0008.52,0007.63
2022-08-04 04:47:00,,0829.5,5.00,0.00,29.4,28.4,00.0,38.2,31.4,30.5,-000.1,0015.01,0008.56,0007.63
2022-08-04 04:48:00,,0829.5,5.00,0.00,29.5,28.5,00.0,38.2,31.5,30.0,-000.4,0014.82,0008.56,0007.62
2022-08-04 04:49:00,,0829.5,5.00,0.00,29.5,28.6,00.0,38.2,31.6,29.9,-000.7,0014.79,0008.57,0007.60
2022-08-04 04:50:00,,0829.5,5.00,0.00,29.6,28.6,00.0,38.3,31.6,29.9,-000.9,0014.97,0008.53,0007.61
2022-08-04 04:51:00,,0829.5,4.99,0.00,29.6,28.1,00.0,38.2,31.5,30.0,-000.9,0014.68,0008.51,0007.61
2022-08-04 04:52:00,,0829.4,5.00,0.00,29.5,27.4,00.0,38.2,31.3,30.3,-000.5,0014.32,0008.51,0007.60
2022-08-04 04:53:00,,0829.3,5.00,0.00,29.5,27.0,00.0,38.2,31.2,30.4,-000.2,0014.23,0008.46,0007.61
2022-08-04 04:54:00,,0829.4,5.01,0.00,29.4,27.0,00.0,38.2,31.1,30.8,0000.0,0014.97,0008.50,0007.62
2022-08-04 04:55:00,,0829.3,4.99,0.00,29.3,27.1,00.0,38.1,31.1,31.1,0000.2,0015.40,0008.57,0007.65
2022-08-04 04:56:00,,0829.4,5.01,0.00,29.3,27.3,00.0,38.1,31.1,31.2,0000.4,0015.33,0008.60,0007.66
2022-08-04 04:57:00,,0829.3,5.00,0.00,29.3,27.4,00.0,38.1,31.1,31.1,0000.3,0015.16,0008.61,0007.65
2022-08-04 04:58:00,,0829.3,4.99,0.00,29.3,27.6,00.0,38.1,31.2,31.2,0000.9,0014.94,0008.56,0007.67
2022-08-04 04:59:00,,0829.3,4.99,0.00,29.3,27.8,00.0,38.1,31.2,31.3,0001.3,0014.87,0008.54,0007.68
